| time (UTC) | temp F | wind direction | speed MPH | gust MPH | rain 1hr in | rain 24hr in | rain mn in | humidity % | barometer mb |
| 20260903112903 | 58 | 290 | 7.0 | 11.0 | 0.02 | 0.02 | 0.02 | 86 | 1017.5 |
| 20260903111359 | 58 | 296 | 6.0 | 13.0 | 0.02 | 0.02 | 0.02 | 85 | 1017.7 |
| 20260903105859 | 58 | 295 | 5.0 | 11.0 | 0.02 | 0.02 | 0.02 | 85 | 1017.8 |
| 20260903104357 | 58 | 320 | 5.0 | 10.0 | 0.01 | 0.01 | 0.01 | 84 | 1017.8 |
| 20260903103544 | 58 | 294 | 2.0 | 6.0 | 0.00 | 0.00 | 0.00 | 84 | 1018.0 |
| 20260903101352 | 57 | 335 | 2.0 | 6.0 | 0.00 | 0.00 | 0.00 | 83 | 1018.0 |
| 20260903095847 | 58 | 317 | 4.0 | 9.0 | 0.00 | 0.00 | 0.00 | 83 | 1018.1 |
| 20260903094342 | 57 | 17 | 1.0 | 6.0 | 0.00 | 0.00 | 0.00 | 82 | 1018.2 |
| 20260903093546 | 57 | 334 | 3.0 | 6.0 | 0.00 | 0.00 | 0.00 | 82 | 1018.3 |
| 20260903091339 | 56 | 323 | 3.0 | 5.0 | 0.00 | 0.00 | 0.00 | 82 | 1018.2 |
| 20260903085835 | 56 | 303 | 0.0 | 1.0 | 0.00 | 0.00 | 0.00 | 81 | 1018.3 |
| 20260903085021 | 56 | 303 | 0.0 | 2.0 | 0.00 | 0.00 | 0.00 | 81 | 1018.1 |
| 20260903082826 | 56 | 303 | 1.0 | 3.0 | 0.00 | 0.00 | 0.00 | 81 | 1018.2 |
| 20260903081327 | 56 | 294 | 2.0 | 3.0 | 0.00 | 0.00 | 0.00 | 81 | 1018.2 |
| 20260903075823 | 56 | 266 | 1.0 | 4.0 | 0.00 | 0.00 | 0.00 | 80 | 1018.3 |
| 20260903074318 | 56 | 263 | 3.0 | 7.0 | 0.00 | 0.00 | 0.00 | 78 | 1018.2 |
| 20260903072818 | 56 | 272 | 4.0 | 8.0 | 0.00 | 0.00 | 0.00 | 76 | 1018.3 |
| 20260903071313 | 57 | 271 | 5.0 | 13.0 | 0.00 | 0.00 | 0.00 | 74 | 1018.2 |
| 20260903070502 | 58 | 0 | 6.0 | 8.0 | 0.00 | 0.00 | 0.00 | 73 | 1018.0 |
| 20260903064310 | 58 | 315 | 4.0 | 8.0 | 0.00 | 0.00 | 0.00 | 72 | 1017.8 |
| 20260903062806 | 58 | 289 | 2.0 | 4.0 | 0.00 | 0.00 | 0.00 | 72 | 1017.5 |
| 20260903061306 | 58 | 253 | 1.0 | 8.0 | 0.00 | 0.00 | 0.00 | 71 | 1017.4 |
| 20260903055802 | 59 | 266 | 3.0 | 15.0 | 0.00 | 0.00 | 0.00 | 70 | 1017.6 |
| 20260903054258 | 60 | 254 | 9.0 | 18.0 | 0.00 | 0.00 | 0.00 | 67 | 1017.5 |
| 20260903052759 | 61 | 267 | 7.0 | 10.0 | 0.00 | 0.00 | 0.00 | 67 | 1017.5 |
| 20260903051254 | 61 | 276 | 4.0 | 13.0 | 0.00 | 0.00 | 0.00 | 64 | 1017.4 |
| 20260903045749 | 62 | 272 | 9.0 | 15.0 | 0.00 | 0.00 | 0.00 | 59 | 1017.5 |
| 20260903044250 | 62 | 273 | 11.0 | 16.0 | 0.00 | 0.00 | 0.00 | 60 | 1017.5 |
| 20260903042748 | 62 | 254 | 12.0 | 19.0 | 0.00 | 0.00 | 0.00 | 62 | 1017.7 |
| 20260903041246 | 62 | 275 | 9.0 | 15.0 | 0.00 | 0.00 | 0.00 | 65 | 1017.7 |
| 20260903035744 | 62 | 272 | 9.0 | 16.0 | 0.00 | 0.00 | 0.00 | 65 | 1017.7 |
| 20260903034237 | 63 | 262 | 10.0 | 18.0 | 0.00 | 0.00 | 0.00 | 64 | 1017.7 |
| 20260903032738 | 63 | 298 | 11.0 | 18.0 | 0.00 | 0.00 | 0.00 | 63 | 1017.7 |
| 20260903031235 | 65 | 254 | 11.0 | 23.0 | 0.00 | 0.00 | 0.00 | 57 | 1017.7 |
| 20260903025735 | 65 | 269 | 15.0 | 19.0 | 0.00 | 0.00 | 0.00 | 56 | 1017.7 |
| 20260903024230 | 65 | 255 | 15.0 | 22.0 | 0.00 | 0.00 | 0.00 | 57 | 1017.9 |
| 20260903023416 | 67 | 233 | 11.0 | 18.0 | 0.00 | 0.00 | 0.00 | 53 | 1017.8 |
| 20260903021221 | 66 | 270 | 11.0 | 15.0 | 0.00 | 0.00 | 0.00 | 51 | 1017.8 |
| 20260903015716 | 65 | 237 | 11.0 | 18.0 | 0.00 | 0.00 | 0.00 | 56 | 1018.0 |
| 20260903014219 | 64 | 243 | 10.0 | 16.0 | 0.00 | 0.00 | 0.00 | 56 | 1018.3 |
| 20260903012713 | 64 | 247 | 8.0 | 20.0 | 0.00 | 0.00 | 0.00 | 58 | 1018.6 |
| 20260903011213 | 65 | 273 | 15.0 | 18.0 | 0.00 | 0.00 | 0.00 | 57 | 1018.6 |
| 20260903005709 | 64 | 281 | 11.0 | 19.0 | 0.00 | 0.00 | 0.00 | 55 | 1018.9 |
| 20260903004207 | 64 | 284 | 11.0 | 16.0 | 0.00 | 0.00 | 0.00 | 62 | 1019.1 |
| 20260903002706 | 63 | 275 | 9.0 | 16.0 | 0.00 | 0.00 | 0.00 | 65 | 1019.2 |
| 20260903001201 | 63 | 271 | 11.0 | 16.0 | 0.00 | 0.00 | 0.00 | 64 | 1019.5 |
| 20260902235657 | 64 | 284 | 7.0 | 14.0 | 0.00 | 0.00 | 0.00 | 63 | 1019.7 |
| 20260902234157 | 63 | 288 | 8.0 | 13.0 | 0.00 | 0.00 | 0.00 | 65 | 1019.7 |
| 20260902232653 | 63 | 266 | 6.0 | 15.0 | 0.00 | 0.00 | 0.00 | 67 | 1019.8 |
| 20260902231154 | 61 | 282 | 9.0 | 16.0 | 0.00 | 0.00 | 0.00 | 69 | 1020.1 |
| 20260902225649 | 59 | 277 | 9.0 | 14.0 | 0.00 | 0.00 | 0.00 | 71 | 1020.2 |
| 20260902224149 | 60 | 254 | 7.0 | 13.0 | 0.00 | 0.00 | 0.00 | 70 | 1020.1 |
| 20260902222647 | 60 | 321 | 8.0 | 11.0 | 0.00 | 0.00 | 0.00 | 71 | 1020.3 |
| 20260902221141 | 59 | 271 | 10.0 | 15.0 | 0.00 | 0.00 | 0.00 | 71 | 1020.4 |
| 20260902215641 | 59 | 301 | 9.0 | 16.0 | 0.00 | 0.00 | 0.00 | 72 | 1020.3 |
| 20260902214137 | 59 | 315 | 9.0 | 14.0 | 0.00 | 0.00 | 0.00 | 74 | 1020.3 |
| 20260902212638 | 58 | 306 | 10.0 | 13.0 | 0.00 | 0.00 | 0.00 | 77 | 1020.3 |
| 20260902211135 | 57 | 34 | 9.0 | 13.0 | 0.00 | 0.00 | 0.00 | 81 | 1020.1 |
| 20260902205628 | 56 | 332 | 6.0 | 11.0 | 0.00 | 0.00 | 0.00 | 83 | 1020.0 |
| 20260902204129 | 55 | 321 | 7.0 | 11.0 | 0.00 | 0.00 | 0.00 | 84 | 1020.0 |
| 20260902202626 | 54 | 294 | 5.0 | 11.0 | 0.00 | 0.00 | 0.00 | 85 | 1020.2 |
| 20260902201126 | 54 | 292 | 9.0 | 14.0 | 0.00 | 0.00 | 0.00 | 85 | 1020.3 |
| 20260902201019 | 54 | 281 | 11.0 | 19.0 | 0.00 | 0.00 | 0.00 | 85 | 1020.3 |
| 20260902194818 | 54 | 299 | 13.0 | 19.0 | 0.00 | 0.00 | 0.00 | 84 | 1020.2 |
| 20260902192618 | 53 | 271 | 14.0 | 19.0 | 0.00 | 0.00 | 0.00 | 84 | 1020.0 |
| 20260902191114 | 52 | 292 | 10.0 | 15.0 | 0.00 | 0.00 | 0.00 | 85 | 1019.8 |
| 20260902185609 | 51 | 313 | 7.0 | 10.0 | 0.00 | 0.00 | 0.00 | 84 | 1019.8 |
| 20260902184110 | 51 | 280 | 7.0 | 10.0 | 0.00 | 0.00 | 0.00 | 84 | 1019.5 |
| 20260902184000 | 52 | 280 | 7.0 | 15.0 | 0.00 | 0.00 | 0.00 | 84 | 1019.5 |
| 20260902183308 | 52 | 280 | 7.0 | 15.0 | 0.00 | 0.00 | 0.00 | 84 | 1019.5 |
| 20260902182609 | 52 | 280 | 7.0 | 15.0 | 0.00 | 0.00 | 0.00 | 84 | 1019.5 |
| 20260902181100 | 52 | 293 | 9.0 | 12.0 | 0.00 | 0.00 | 0.00 | 84 | 1019.3 |
| 20260902175556 | 52 | 338 | 9.0 | 14.0 | 0.00 | 0.00 | 0.00 | 83 | 1019.4 |
| 20260902174052 | 52 | 295 | 8.0 | 14.0 | 0.00 | 0.00 | 0.00 | 84 | 1019.4 |
| 20260902174022 | 52 | 306 | 9.0 | 14.0 | 0.00 | 0.00 | 0.00 | 84 | 1019.3 |
| 20260902171744 | 52 | 311 | 6.0 | 11.0 | 0.00 | 0.00 | 0.00 | 84 | 1019.1 |
| 20260902165543 | 52 | 311 | 9.0 | 12.0 | 0.00 | 0.00 | 0.00 | 84 | 1019.1 |
| 20260902164740 | 52 | 309 | 7.0 | 12.0 | 0.00 | 0.00 | 0.00 | 84 | 1019.2 |
| 20260902164138 | 52 | 309 | 7.0 | 12.0 | 0.00 | 0.00 | 0.00 | 84 | 1019.2 |
| 20260902162540 | 52 | 313 | 7.0 | 11.0 | 0.00 | 0.00 | 0.00 | 84 | 1019.2 |
| 20260902162434 | 52 | 306 | 7.0 | 12.0 | 0.00 | 0.00 | 0.00 | 83 | 1019.2 |
| 20260902161743 | 52 | 306 | 7.0 | 12.0 | 0.00 | 0.00 | 0.00 | 83 | 1019.2 |
| 20260902155531 | 52 | 287 | 9.0 | 12.0 | 0.00 | 0.00 | 0.00 | 83 | 1019.2 |
| 20260902155426 | 53 | 313 | 8.0 | 12.0 | 0.00 | 0.00 | 0.00 | 82 | 1019.2 |
| 20260902152527 | 53 | 309 | 8.0 | 13.0 | 0.00 | 0.00 | 0.00 | 82 | 1019.3 |
| 20260902151023 | 53 | 313 | 9.0 | 13.0 | 0.00 | 0.00 | 0.00 | 81 | 1019.3 |
| 20260902145520 | 53 | 294 | 9.0 | 13.0 | 0.00 | 0.00 | 0.00 | 80 | 1019.5 |
| 20260902144014 | 54 | 315 | 10.0 | 14.0 | 0.00 | 0.00 | 0.00 | 80 | 1019.7 |
| 20260902143214 | 54 | 302 | 5.0 | 10.0 | 0.00 | 0.00 | 0.00 | 78 | 1019.7 |
| 20260902141010 | 55 | 267 | 5.0 | 7.0 | 0.00 | 0.00 | 0.00 | 77 | 1019.9 |
| 20260902140205 | 54 | 289 | 4.0 | 9.0 | 0.00 | 0.00 | 0.00 | 77 | 1019.8 |
| 20260902134006 | 54 | 306 | 6.0 | 11.0 | 0.00 | 0.00 | 0.00 | 77 | 1019.7 |
| 20260902132503 | 54 | 288 | 5.0 | 9.0 | 0.00 | 0.00 | 0.00 | 76 | 1020.0 |
| 20260902131003 | 55 | 318 | 5.0 | 8.0 | 0.00 | 0.00 | 0.00 | 74 | 1019.8 |
| 20260902125458 | 56 | 13 | 0.0 | 7.0 | 0.00 | 0.00 | 0.00 | 71 | 1019.7 |
| 20260902123949 | 56 | 273 | 4.0 | 11.0 | 0.00 | 0.00 | 0.00 | 69 | 1019.7 |
| 20260902122450 | 57 | 231 | 5.0 | 10.0 | 0.00 | 0.00 | 0.00 | 68 | 1019.4 |
| 20260902120945 | 57 | 229 | 8.0 | 12.0 | 0.00 | 0.00 | 0.00 | 70 | 1019.3 |
| 20260902115441 | 56 | 236 | 5.0 | 12.0 | 0.00 | 0.00 | 0.00 | 73 | 1019.3 |
| 20260902113941 | 56 | 294 | 5.0 | 9.0 | 0.00 | 0.00 | 0.00 | 72 | 1019.2 |